Year,Month,Day,Hour,Minute,Value (Times are PST for temperature in C)
2013,08,06,00,00,14.10
2013,08,06,00,01,14.10
2013,08,06,00,02,14.00
2013,08,06,00,03,14.00
2013,08,06,00,04,14.00
2013,08,06,00,05,14.00
2013,08,06,00,06,14.00
2013,08,06,00,07,13.90
2013,08,06,00,08,13.90
2013,08,06,00,09,13.90
2013,08,06,00,10,13.90
2013,08,06,00,11,13.80
2013,08,06,00,12,13.80
2013,08,06,00,13,13.80
2013,08,06,00,16,13.70
2013,08,06,00,17,13.70
2013,08,06,00,18,13.70
2013,08,06,00,19,13.70
2013,08,06,00,20,13.70
2013,08,06,00,21,13.70
2013,08,06,00,22,13.60
2013,08,06,00,23,13.60
2013,08,06,00,24,13.60
2013,08,06,00,25,13.60
2013,08,06,00,26,13.50
2013,08,06,00,27,13.50
2013,08,06,00,28,13.50
2013,08,06,00,29,13.40
2013,08,06,00,30,13.40
2013,08,06,00,31,13.40
2013,08,06,00,32,13.30
2013,08,06,00,33,13.30
2013,08,06,00,34,13.30
2013,08,06,00,35,13.30
2013,08,06,00,36,13.30
2013,08,06,00,37,13.30
2013,08,06,00,38,13.20
2013,08,06,00,39,13.20
2013,08,06,00,40,13.20
2013,08,06,00,41,13.10
2013,08,06,00,42,13.10
2013,08,06,00,43,13.10
2013,08,06,00,44,13.00
2013,08,06,00,45,13.00
2013,08,06,00,46,13.00
2013,08,06,00,47,13.00
2013,08,06,00,48,12.90
2013,08,06,00,49,12.90
2013,08,06,00,50,12.90
2013,08,06,00,51,12.90
2013,08,06,00,52,12.80
2013,08,06,00,53,12.80
2013,08,06,00,54,12.80
2013,08,06,00,55,12.80
2013,08,06,00,56,12.80
2013,08,06,00,57,12.80
2013,08,06,00,58,12.80
2013,08,06,00,59,12.80
2013,08,06,01,00,12.80
2013,08,06,01,01,12.70
2013,08,06,01,02,12.70
2013,08,06,01,03,12.70
2013,08,06,01,04,12.70
2013,08,06,01,05,12.70
2013,08,06,01,06,12.70
2013,08,06,01,07,12.60
2013,08,06,01,08,12.60
2013,08,06,01,09,12.60
2013,08,06,01,10,12.60
2013,08,06,01,11,12.60
2013,08,06,01,12,12.60
2013,08,06,01,13,12.60
2013,08,06,01,14,12.50
2013,08,06,01,15,12.50
2013,08,06,01,16,12.50
2013,08,06,01,17,12.50
2013,08,06,01,18,12.50
2013,08,06,01,19,12.50
2013,08,06,01,20,12.50
2013,08,06,01,21,12.50
2013,08,06,01,22,12.40
2013,08,06,01,23,12.40
2013,08,06,01,24,12.40
2013,08,06,01,25,12.40
2013,08,06,01,26,12.40
2013,08,06,01,27,12.40
2013,08,06,01,28,12.40
2013,08,06,01,29,12.40
2013,08,06,01,30,12.30
2013,08,06,01,31,12.30
2013,08,06,01,32,12.30
2013,08,06,01,33,12.30
2013,08,06,01,34,12.30
2013,08,06,01,35,12.30
2013,08,06,01,36,12.30
2013,08,06,01,37,12.30
2013,08,06,01,38,12.30
2013,08,06,01,39,12.30
2013,08,06,01,40,12.30
2013,08,06,01,41,12.30
2013,08,06,01,42,12.30
2013,08,06,01,43,12.30
2013,08,06,01,44,12.30
2013,08,06,01,45,12.20
2013,08,06,01,46,12.20
2013,08,06,01,47,12.20
2013,08,06,01,48,12.20
2013,08,06,01,49,12.20
2013,08,06,01,50,12.20
2013,08,06,01,51,12.10
2013,08,06,01,52,12.10
2013,08,06,01,53,12.10
2013,08,06,01,54,12.10
2013,08,06,01,55,12.10
2013,08,06,01,56,12.10
2013,08,06,01,57,12.00
2013,08,06,01,58,12.00
2013,08,06,01,59,12.00
2013,08,06,02,00,12.00
2013,08,06,02,01,12.00
2013,08,06,02,02,12.00
2013,08,06,02,03,11.90
2013,08,06,02,04,11.90
2013,08,06,02,05,11.90
2013,08,06,02,06,11.90
2013,08,06,02,07,11.90
2013,08,06,02,08,11.90
2013,08,06,02,09,11.90
2013,08,06,02,10,11.90
2013,08,06,02,11,11.90
2013,08,06,02,12,11.80
2013,08,06,02,13,11.80
2013,08,06,02,14,11.80
2013,08,06,02,15,11.80
2013,08,06,02,16,11.80
2013,08,06,02,17,11.80
2013,08,06,02,18,11.80
2013,08,06,02,19,11.80
2013,08,06,02,20,11.80
2013,08,06,02,21,11.80
2013,08,06,02,22,11.80
2013,08,06,02,23,11.80
2013,08,06,02,24,11.80
2013,08,06,02,25,11.80
2013,08,06,02,26,11.80
2013,08,06,02,27,11.80
2013,08,06,02,28,11.80
2013,08,06,02,29,11.80
2013,08,06,02,30,11.80
2013,08,06,02,31,11.80
2013,08,06,02,32,11.80
2013,08,06,02,33,11.80
2013,08,06,02,34,11.80
2013,08,06,02,35,11.80
2013,08,06,02,36,11.80
2013,08,06,02,37,11.80
2013,08,06,02,38,11.80
2013,08,06,02,39,11.70
2013,08,06,02,40,11.70
2013,08,06,02,41,11.70
2013,08,06,02,42,11.70
2013,08,06,02,43,11.70
2013,08,06,02,44,11.70
2013,08,06,02,45,11.70
2013,08,06,02,46,11.70
2013,08,06,02,47,11.70
2013,08,06,02,48,11.70
2013,08,06,02,49,11.70
2013,08,06,02,50,11.70
2013,08,06,02,51,11.70
2013,08,06,02,52,11.70
2013,08,06,02,53,11.70
2013,08,06,02,54,11.70
2013,08,06,02,55,11.60
2013,08,06,02,56,11.60
2013,08,06,02,57,11.60
2013,08,06,02,58,11.60
2013,08,06,02,59,11.60
2013,08,06,03,00,11.60
2013,08,06,03,01,11.60
2013,08,06,03,02,11.60
2013,08,06,03,03,11.60
2013,08,06,03,04,11.60
2013,08,06,03,05,11.60
2013,08,06,03,06,11.60
2013,08,06,03,07,11.60
2013,08,06,03,08,11.60
2013,08,06,03,09,11.60
2013,08,06,03,10,11.60
2013,08,06,03,11,11.60
2013,08,06,03,12,11.60
2013,08,06,03,13,11.60
2013,08,06,03,14,11.60
2013,08,06,03,15,11.60
2013,08,06,03,16,11.60
2013,08,06,03,17,11.60
2013,08,06,03,18,11.60
2013,08,06,03,19,11.60
2013,08,06,03,20,11.60
2013,08,06,03,21,11.60
2013,08,06,03,22,11.60
2013,08,06,03,23,11.60
2013,08,06,03,24,11.60
2013,08,06,03,25,11.60
2013,08,06,03,26,11.60
2013,08,06,03,27,11.60
2013,08,06,03,28,11.60
2013,08,06,03,29,11.60
2013,08,06,03,30,11.60
2013,08,06,03,31,11.60
2013,08,06,03,32,11.60
2013,08,06,03,33,11.60
2013,08,06,03,34,11.60
2013,08,06,03,35,11.60
2013,08,06,03,36,11.60
2013,08,06,03,37,11.60
2013,08,06,03,38,11.60
2013,08,06,03,39,11.40
2013,08,06,03,40,11.40
2013,08,06,03,41,11.40
2013,08,06,03,42,11.40
2013,08,06,03,43,11.40
2013,08,06,03,44,11.40
2013,08,06,03,45,11.40
2013,08,06,03,46,11.40
2013,08,06,03,47,11.40
2013,08,06,03,48,11.40
2013,08,06,03,49,11.40
2013,08,06,03,50,11.40
2013,08,06,03,51,11.40
2013,08,06,03,52,11.40
2013,08,06,03,53,11.40
2013,08,06,03,54,11.40
2013,08,06,03,55,11.40
2013,08,06,03,56,11.40
2013,08,06,03,57,11.40
2013,08,06,03,58,11.40
2013,08,06,03,59,11.40
2013,08,06,04,00,11.40
2013,08,06,04,01,11.40
2013,08,06,04,02,11.30
2013,08,06,04,03,11.30
2013,08,06,04,04,11.30
2013,08,06,04,05,11.30
2013,08,06,04,06,11.30
2013,08,06,04,07,11.30
2013,08,06,04,08,11.30
2013,08,06,04,09,11.30
2013,08,06,04,10,11.20
2013,08,06,04,11,11.20
2013,08,06,04,12,11.20
2013,08,06,04,13,11.20
2013,08,06,04,14,11.20
2013,08,06,04,15,11.20
2013,08,06,04,16,11.20
2013,08,06,04,17,11.20
2013,08,06,04,18,11.20
2013,08,06,04,19,11.10
2013,08,06,04,20,11.10
2013,08,06,04,21,11.10
2013,08,06,04,22,11.10
2013,08,06,04,23,11.10
2013,08,06,04,24,11.10
2013,08,06,04,25,11.10
2013,08,06,04,26,11.10
2013,08,06,04,27,11.10
2013,08,06,04,28,11.10
2013,08,06,04,29,11.10
2013,08,06,04,30,11.10
2013,08,06,04,31,11.10
2013,08,06,04,32,11.10
2013,08,06,04,33,11.10
2013,08,06,04,34,11.10
2013,08,06,04,35,11.10
2013,08,06,04,36,11.10
2013,08,06,04,37,11.10
2013,08,06,04,38,11.00
2013,08,06,04,39,10.90
2013,08,06,04,40,10.90
2013,08,06,04,41,10.90
2013,08,06,04,42,10.90
2013,08,06,04,43,10.90
2013,08,06,04,44,10.90
2013,08,06,04,45,10.90
2013,08,06,04,46,10.90
2013,08,06,04,47,10.90
2013,08,06,04,48,10.90
2013,08,06,04,49,10.90
2013,08,06,04,50,10.90
2013,08,06,04,51,10.90
2013,08,06,04,52,10.90
2013,08,06,04,53,10.90
2013,08,06,04,54,10.90
2013,08,06,04,55,10.90
2013,08,06,04,56,10.90
2013,08,06,04,57,10.90
2013,08,06,04,58,10.90
2013,08,06,04,59,10.90
2013,08,06,05,00,10.90
2013,08,06,05,01,10.90
2013,08,06,05,02,10.90
2013,08,06,05,03,10.90
2013,08,06,05,04,10.90
2013,08,06,05,05,10.90
2013,08,06,05,06,10.90
2013,08,06,05,07,10.90
2013,08,06,05,08,10.90
2013,08,06,05,09,10.90
2013,08,06,05,10,10.90
2013,08,06,05,11,10.90
2013,08,06,05,12,10.90
2013,08,06,05,13,10.90
2013,08,06,05,14,10.90
2013,08,06,05,15,10.90
2013,08,06,05,16,10.90
2013,08,06,05,17,10.90
2013,08,06,05,18,10.90
2013,08,06,05,19,10.90
2013,08,06,05,20,10.80
2013,08,06,05,21,10.80
2013,08,06,05,22,10.80
2013,08,06,05,23,10.80
2013,08,06,05,24,10.80
2013,08,06,05,25,10.80
2013,08,06,05,26,10.80
2013,08,06,05,27,10.80
2013,08,06,05,28,10.80
2013,08,06,05,29,10.80
2013,08,06,05,30,10.80
2013,08,06,05,31,10.80
2013,08,06,05,32,10.70
2013,08,06,05,33,10.70
2013,08,06,05,34,10.70
2013,08,06,05,35,10.70
2013,08,06,05,36,10.70
2013,08,06,05,37,10.70
2013,08,06,05,38,10.70
2013,08,06,05,39,10.70
2013,08,06,05,40,10.70
2013,08,06,05,41,10.70
2013,08,06,05,42,10.70
2013,08,06,05,43,10.70
2013,08,06,05,44,10.70
2013,08,06,05,45,10.70
2013,08,06,05,46,10.70
2013,08,06,05,47,10.60
2013,08,06,05,48,10.60
2013,08,06,05,49,10.60
2013,08,06,05,50,10.60
2013,08,06,05,51,10.60
2013,08,06,05,52,10.60
2013,08,06,05,53,10.60
2013,08,06,05,54,10.60
2013,08,06,05,55,10.60
2013,08,06,05,56,10.60
2013,08,06,05,57,10.60
2013,08,06,05,58,10.60
2013,08,06,05,59,10.60
2013,08,06,06,00,10.60
2013,08,06,06,01,10.60
2013,08,06,06,02,10.60
2013,08,06,06,03,10.60
2013,08,06,06,04,10.60
2013,08,06,06,05,10.60
2013,08,06,06,06,10.60
2013,08,06,06,07,10.60
2013,08,06,06,08,10.60
2013,08,06,06,09,10.60
2013,08,06,06,10,10.60
2013,08,06,06,11,10.60
2013,08,06,06,12,10.60
2013,08,06,06,13,10.60
2013,08,06,06,14,10.60
2013,08,06,06,15,10.60
2013,08,06,06,16,10.60
2013,08,06,06,17,10.60
2013,08,06,06,18,10.50
2013,08,06,06,19,10.40
2013,08,06,06,20,10.40
2013,08,06,06,21,10.40
2013,08,06,06,22,10.40
2013,08,06,06,23,10.40
2013,08,06,06,24,10.40
2013,08,06,06,25,10.40
2013,08,06,06,26,10.40
2013,08,06,06,27,10.40
2013,08,06,06,28,10.40
2013,08,06,06,29,10.40
2013,08,06,06,30,10.40
2013,08,06,06,31,10.40
2013,08,06,06,32,10.40
2013,08,06,06,33,10.40
2013,08,06,06,34,10.40
2013,08,06,06,35,10.40
2013,08,06,06,36,10.40
2013,08,06,06,37,10.40
2013,08,06,06,38,10.40
2013,08,06,06,39,10.40
2013,08,06,06,40,10.40
2013,08,06,06,41,10.40
2013,08,06,06,42,10.40
2013,08,06,06,43,10.40
2013,08,06,06,44,10.40
2013,08,06,06,45,10.40
2013,08,06,06,46,10.40
2013,08,06,06,47,10.40
2013,08,06,06,48,10.40
2013,08,06,06,49,10.40
2013,08,06,06,50,10.40
2013,08,06,06,51,10.50
2013,08,06,06,52,10.60
2013,08,06,06,53,10.60
2013,08,06,06,54,10.60
2013,08,06,06,55,10.60
2013,08,06,06,56,10.60
2013,08,06,06,57,10.60
2013,08,06,06,58,10.60
2013,08,06,06,59,10.60
2013,08,06,07,00,10.60
2013,08,06,07,01,10.60
2013,08,06,07,02,10.70
2013,08,06,07,03,10.70
2013,08,06,07,04,10.70
2013,08,06,07,05,10.70
2013,08,06,07,06,10.70
2013,08,06,07,07,10.80
2013,08,06,07,08,10.80
2013,08,06,07,09,10.80
2013,08,06,07,10,10.80
2013,08,06,07,11,10.80
2013,08,06,07,12,10.80
2013,08,06,07,13,10.80
2013,08,06,07,14,10.80
2013,08,06,07,15,10.90
2013,08,06,07,16,10.90
2013,08,06,07,17,10.90
2013,08,06,07,18,10.90
2013,08,06,07,19,10.90
2013,08,06,07,20,10.90
2013,08,06,07,21,10.90
2013,08,06,07,22,11.00
2013,08,06,07,23,11.10
2013,08,06,07,24,11.10
2013,08,06,07,25,11.10
2013,08,06,07,26,11.10
2013,08,06,07,27,11.10
2013,08,06,07,28,11.10
2013,08,06,07,29,11.10
2013,08,06,07,30,11.10
2013,08,06,07,31,11.10
2013,08,06,07,32,11.20
2013,08,06,07,33,11.20
2013,08,06,07,34,11.20
2013,08,06,07,35,11.20
2013,08,06,07,36,11.20
2013,08,06,07,37,11.20
2013,08,06,07,38,11.20
2013,08,06,07,39,11.30
2013,08,06,07,40,11.30
2013,08,06,07,41,11.30
2013,08,06,07,42,11.30
2013,08,06,07,43,11.30
2013,08,06,07,44,11.30
2013,08,06,07,45,11.40
2013,08,06,07,46,11.40
2013,08,06,07,47,11.40
2013,08,06,07,48,11.40
2013,08,06,07,49,11.40
2013,08,06,07,50,11.40
2013,08,06,07,51,11.40
2013,08,06,07,52,11.40
2013,08,06,07,53,11.40
2013,08,06,07,54,11.40
2013,08,06,07,55,11.40
2013,08,06,07,56,11.40
2013,08,06,07,57,11.40
2013,08,06,07,58,11.40
2013,08,06,07,59,11.40
2013,08,06,08,00,11.40
2013,08,06,08,01,11.40
2013,08,06,08,02,11.40
2013,08,06,08,03,11.60
2013,08,06,08,04,11.60
2013,08,06,08,05,11.60
2013,08,06,08,06,11.60
2013,08,06,08,07,11.60
2013,08,06,08,08,11.70
2013,08,06,08,09,11.80
2013,08,06,08,10,11.80
2013,08,06,08,11,11.80
2013,08,06,08,12,11.80
2013,08,06,08,13,11.90
2013,08,06,08,14,11.90
2013,08,06,08,15,12.00
2013,08,06,08,16,12.00
2013,08,06,08,17,12.00
2013,08,06,08,18,12.10
2013,08,06,08,19,12.20
2013,08,06,08,20,12.20
2013,08,06,08,21,12.30
2013,08,06,08,22,12.30
2013,08,06,08,23,12.40
2013,08,06,08,24,12.50
2013,08,06,08,25,12.50
2013,08,06,08,26,12.60
2013,08,06,08,27,12.70
2013,08,06,08,28,12.80
2013,08,06,08,29,12.80
2013,08,06,08,30,12.90
2013,08,06,08,31,12.90
2013,08,06,08,32,13.00
2013,08,06,08,33,13.10
2013,08,06,08,34,13.10
2013,08,06,08,35,13.20
2013,08,06,08,36,13.30
2013,08,06,08,37,13.30
2013,08,06,08,38,13.30
2013,08,06,08,39,13.40
2013,08,06,08,40,13.50
2013,08,06,08,41,13.50
2013,08,06,08,42,13.50
2013,08,06,08,43,13.60
2013,08,06,08,44,13.60
2013,08,06,08,45,13.60
2013,08,06,08,46,13.70
2013,08,06,08,47,13.70
2013,08,06,08,48,13.70
2013,08,06,08,49,13.80
2013,08,06,08,50,13.80
2013,08,06,08,51,13.90
2013,08,06,08,52,13.90
2013,08,06,08,53,13.90
2013,08,06,08,54,13.90
2013,08,06,08,55,14.00
2013,08,06,08,56,14.00
2013,08,06,08,57,14.00
2013,08,06,08,58,14.10
2013,08,06,08,59,14.10
2013,08,06,09,00,14.10
2013,08,06,09,01,14.10
2013,08,06,09,02,14.10
2013,08,06,09,03,14.10
2013,08,06,09,04,14.20
2013,08,06,09,05,14.20
2013,08,06,09,06,14.20
2013,08,06,09,07,14.20
2013,08,06,09,08,14.20
2013,08,06,09,09,14.20
2013,08,06,09,10,14.20
2013,08,06,09,11,14.30
2013,08,06,09,12,14.30
2013,08,06,09,13,14.30
2013,08,06,09,14,14.40
2013,08,06,09,15,14.40
2013,08,06,09,16,14.40
2013,08,06,09,17,14.40
2013,08,06,09,18,14.50
2013,08,06,09,19,14.50
2013,08,06,09,20,14.50
2013,08,06,09,21,14.50
2013,08,06,09,22,14.60
2013,08,06,09,23,14.60
2013,08,06,09,24,14.60
2013,08,06,09,25,14.70
2013,08,06,09,26,14.70
2013,08,06,09,27,14.70
2013,08,06,09,28,14.80
2013,08,06,09,29,14.80
2013,08,06,09,30,14.80
2013,08,06,09,31,14.80
2013,08,06,09,32,14.80
2013,08,06,09,33,14.90
2013,08,06,09,34,14.90
2013,08,06,09,35,15.00
2013,08,06,09,36,15.00
2013,08,06,09,37,15.10
2013,08,06,09,38,15.10
2013,08,06,09,39,15.10
2013,08,06,09,40,15.20
2013,08,06,09,41,15.20
2013,08,06,09,42,15.30
2013,08,06,09,43,15.30
2013,08,06,09,44,15.30
2013,08,06,09,45,15.30
2013,08,06,09,46,15.40
2013,08,06,09,47,15.40
2013,08,06,09,48,15.40
2013,08,06,09,49,15.50
2013,08,06,09,50,15.50
2013,08,06,09,51,15.60
2013,08,06,09,52,15.60
2013,08,06,09,53,15.60
2013,08,06,09,54,15.70
2013,08,06,09,55,15.70
2013,08,06,09,56,15.80
2013,08,06,09,57,15.80
2013,08,06,09,58,15.90
2013,08,06,09,59,16.00
2013,08,06,10,00,16.10
2013,08,06,10,01,16.10
2013,08,06,10,02,16.20
2013,08,06,10,03,16.20
2013,08,06,10,04,16.30
2013,08,06,10,05,16.40
2013,08,06,10,06,16.40
2013,08,06,10,07,16.40
2013,08,06,10,08,16.40
2013,08,06,10,09,16.50
2013,08,06,10,10,16.60
2013,08,06,10,11,16.60
2013,08,06,10,12,16.70
2013,08,06,10,13,16.70
2013,08,06,10,14,16.70
2013,08,06,10,15,16.80
2013,08,06,10,16,16.80
2013,08,06,10,17,16.80
2013,08,06,10,18,16.80
2013,08,06,10,19,16.80
2013,08,06,10,20,16.80
2013,08,06,10,21,16.90
2013,08,06,10,22,16.90
2013,08,06,10,23,16.90
2013,08,06,10,24,16.90
2013,08,06,10,25,16.90
2013,08,06,10,26,16.90
2013,08,06,10,27,16.90
2013,08,06,10,28,16.90
2013,08,06,10,29,16.90
2013,08,06,10,30,16.90
2013,08,06,10,31,17.00
2013,08,06,10,32,17.00
2013,08,06,10,33,17.00
2013,08,06,10,34,17.00
2013,08,06,10,35,17.00
2013,08,06,10,36,17.10
2013,08,06,10,37,17.10
2013,08,06,10,38,17.10
2013,08,06,10,39,17.10
2013,08,06,10,40,17.10
2013,08,06,10,41,17.10
2013,08,06,10,42,17.20
2013,08,06,10,43,17.20
2013,08,06,10,44,17.20
2013,08,06,10,45,17.20
2013,08,06,10,46,17.30
2013,08,06,10,47,17.30
2013,08,06,10,48,17.30
2013,08,06,10,49,17.30
2013,08,06,10,50,17.40
2013,08,06,10,51,17.40
2013,08,06,10,52,17.50
2013,08,06,10,53,17.50
2013,08,06,10,54,17.60
2013,08,06,10,55,17.60
2013,08,06,10,56,17.70
2013,08,06,10,57,17.70
2013,08,06,10,58,17.70
2013,08,06,10,59,17.80
2013,08,06,11,00,17.80
2013,08,06,11,01,17.80
2013,08,06,11,02,17.80
2013,08,06,11,03,17.80
2013,08,06,11,04,17.80
2013,08,06,11,05,17.90
2013,08,06,11,06,17.90
2013,08,06,11,07,17.90
2013,08,06,11,08,18.00
2013,08,06,11,09,18.10
2013,08,06,11,10,18.20
2013,08,06,11,11,18.20
2013,08,06,11,12,18.30
2013,08,06,11,13,18.50
2013,08,06,11,14,18.50
2013,08,06,11,15,18.60
2013,08,06,11,16,18.60
2013,08,06,11,17,18.70
2013,08,06,11,18,18.80
2013,08,06,11,19,18.80
2013,08,06,11,20,18.90
2013,08,06,11,21,18.90
2013,08,06,11,22,19.00
2013,08,06,11,23,19.10
2013,08,06,11,24,19.10
2013,08,06,11,25,19.00
2013,08,06,11,26,18.90
2013,08,06,11,27,18.90
2013,08,06,11,28,19.00
2013,08,06,11,29,19.10
2013,08,06,11,30,19.10
2013,08,06,11,31,19.10
2013,08,06,11,32,19.20
2013,08,06,11,33,19.30
2013,08,06,11,34,19.40
2013,08,06,11,35,19.50
2013,08,06,11,36,19.50
2013,08,06,11,37,19.60
2013,08,06,11,38,19.60
2013,08,06,11,39,19.50
2013,08,06,11,40,19.60
2013,08,06,11,41,19.60
2013,08,06,11,42,19.60
2013,08,06,11,43,19.60
2013,08,06,11,44,19.50
2013,08,06,11,45,19.50
2013,08,06,11,46,19.40
2013,08,06,11,47,19.40
2013,08,06,11,48,19.40
2013,08,06,11,49,19.50
2013,08,06,11,50,19.60
2013,08,06,11,51,19.70
2013,08,06,11,52,19.80
2013,08,06,11,53,19.90
2013,08,06,11,54,19.90
2013,08,06,11,55,19.90
2013,08,06,11,56,19.80
2013,08,06,11,57,19.40
2013,08,06,11,58,19.20
2013,08,06,11,59,19.10
2013,08,06,12,00,18.90
2013,08,06,12,01,18.70
2013,08,06,12,02,18.60
2013,08,06,12,03,18.50
2013,08,06,12,04,18.50
2013,08,06,12,05,18.50
2013,08,06,12,06,18.60
2013,08,06,12,07,18.70
2013,08,06,12,08,18.70
2013,08,06,12,09,18.60
2013,08,06,12,10,18.40
2013,08,06,12,11,18.30
2013,08,06,12,12,18.30
2013,08,06,12,13,18.20
2013,08,06,12,14,18.20
2013,08,06,12,15,18.30
2013,08,06,12,16,18.50
2013,08,06,12,17,18.70
2013,08,06,12,18,18.80
2013,08,06,12,19,18.80
2013,08,06,12,20,18.80
2013,08,06,12,21,18.80
2013,08,06,12,22,18.80
2013,08,06,12,23,18.90
2013,08,06,12,24,18.90
2013,08,06,12,25,18.90
2013,08,06,12,26,18.90
2013,08,06,12,27,18.90
2013,08,06,12,28,19.00
2013,08,06,12,29,19.10
2013,08,06,12,30,19.10
2013,08,06,12,31,19.10
2013,08,06,12,32,18.90
2013,08,06,12,33,18.90
2013,08,06,12,34,18.90
2013,08,06,12,35,18.90
2013,08,06,12,36,19.00
2013,08,06,12,37,19.20
2013,08,06,12,38,19.40
2013,08,06,12,39,19.50
2013,08,06,12,40,19.50
2013,08,06,12,41,19.60
2013,08,06,12,42,19.60
2013,08,06,12,43,19.50
2013,08,06,12,44,19.40
2013,08,06,12,45,19.20
2013,08,06,12,46,19.00
2013,08,06,12,47,18.90
2013,08,06,12,48,18.70
2013,08,06,12,49,18.70
2013,08,06,12,50,18.60
2013,08,06,12,51,18.50
2013,08,06,12,52,18.50
2013,08,06,12,53,18.60
2013,08,06,12,54,18.70
2013,08,06,12,55,18.80
2013,08,06,12,56,18.90
2013,08,06,12,57,19.00
2013,08,06,12,58,19.10
2013,08,06,12,59,19.10
2013,08,06,13,00,19.10
2013,08,06,13,01,19.30
2013,08,06,13,02,19.40
2013,08,06,13,03,19.40
2013,08,06,13,04,19.60
2013,08,06,13,05,19.70
2013,08,06,13,06,19.80
2013,08,06,13,07,19.90
2013,08,06,13,08,20.00
2013,08,06,13,09,20.20
2013,08,06,13,10,20.30
2013,08,06,13,11,20.40
2013,08,06,13,12,20.40
2013,08,06,13,13,20.50
2013,08,06,13,14,20.50
2013,08,06,13,15,20.50
2013,08,06,13,16,20.60
2013,08,06,13,17,20.70
2013,08,06,13,18,20.80
2013,08,06,13,19,21.00
2013,08,06,13,20,21.10
2013,08,06,13,21,21.20
2013,08,06,13,22,21.30
2013,08,06,13,23,21.30
2013,08,06,13,24,21.30
2013,08,06,13,25,21.40
2013,08,06,13,26,21.60
2013,08,06,13,27,21.60
2013,08,06,13,28,21.70
2013,08,06,13,29,21.70
2013,08,06,13,30,21.80
2013,08,06,13,31,21.80
2013,08,06,13,32,21.90
2013,08,06,13,33,22.00
2013,08,06,13,34,22.10
2013,08,06,13,35,22.30
2013,08,06,13,36,22.30
2013,08,06,13,37,22.30
2013,08,06,13,38,22.20
2013,08,06,13,39,22.00
2013,08,06,13,40,22.00
2013,08,06,13,41,21.90
2013,08,06,13,42,21.80
2013,08,06,13,43,21.80
2013,08,06,13,44,21.70
2013,08,06,13,45,21.70
2013,08,06,13,46,21.80
2013,08,06,13,47,21.80
2013,08,06,13,48,21.80
2013,08,06,13,49,21.90
2013,08,06,13,50,22.00
2013,08,06,13,51,22.00
2013,08,06,13,52,22.00
2013,08,06,13,53,22.00
2013,08,06,13,54,22.00
2013,08,06,13,55,21.90
2013,08,06,13,56,22.00
2013,08,06,13,57,22.10
2013,08,06,13,58,22.10
2013,08,06,13,59,22.10
2013,08,06,14,00,22.10
2013,08,06,14,01,22.10
2013,08,06,14,02,22.10
2013,08,06,14,03,22.20
2013,08,06,14,04,22.20
2013,08,06,14,05,22.20
2013,08,06,14,06,22.20
2013,08,06,14,07,22.20
2013,08,06,14,08,22.30
2013,08,06,14,09,22.30
2013,08,06,14,10,22.30
2013,08,06,14,11,22.30
2013,08,06,14,12,22.30
2013,08,06,14,13,22.20
2013,08,06,14,14,22.30
2013,08,06,14,15,22.40
2013,08,06,14,16,22.50
2013,08,06,14,17,22.60
2013,08,06,14,18,22.50
2013,08,06,14,19,22.50
2013,08,06,14,20,22.50
2013,08,06,14,21,22.50
2013,08,06,14,22,22.60
2013,08,06,14,23,22.80
2013,08,06,14,24,23.00
2013,08,06,14,25,23.10
2013,08,06,14,26,23.10
2013,08,06,14,27,23.10
2013,08,06,14,28,23.00
2013,08,06,14,29,22.80
2013,08,06,14,30,22.90
2013,08,06,14,31,22.90
2013,08,06,14,32,22.90
2013,08,06,14,33,22.90
2013,08,06,14,34,22.90
2013,08,06,14,35,23.10
2013,08,06,14,36,23.20
2013,08,06,14,37,23.30
2013,08,06,14,38,23.30
2013,08,06,14,39,23.30
2013,08,06,14,40,23.30
2013,08,06,14,41,23.40
2013,08,06,14,42,23.40
2013,08,06,14,43,23.40
2013,08,06,14,44,23.40
2013,08,06,14,45,23.30
2013,08,06,14,46,23.30
2013,08,06,14,47,23.20
2013,08,06,14,48,23.10
2013,08,06,14,49,23.10
2013,08,06,14,50,23.00
2013,08,06,14,51,22.90
2013,08,06,14,52,22.90
2013,08,06,14,53,22.90
2013,08,06,14,54,22.90
2013,08,06,14,55,22.90
2013,08,06,14,56,22.90
2013,08,06,14,57,22.90
2013,08,06,14,58,22.90
2013,08,06,14,59,22.90
2013,08,06,15,00,22.90
2013,08,06,15,01,22.80
2013,08,06,15,02,22.80
2013,08,06,15,03,22.80
2013,08,06,15,04,22.80
2013,08,06,15,05,22.80
2013,08,06,15,06,22.80
2013,08,06,15,07,22.90
2013,08,06,15,08,22.80
2013,08,06,15,09,22.80
2013,08,06,15,10,22.90
2013,08,06,15,11,22.90
2013,08,06,15,12,22.90
2013,08,06,15,13,22.90
2013,08,06,15,14,22.80
2013,08,06,15,15,22.70
2013,08,06,15,16,22.70
2013,08,06,15,17,22.70
2013,08,06,15,18,22.80
2013,08,06,15,19,22.80
2013,08,06,15,20,22.80
2013,08,06,15,21,22.80
2013,08,06,15,22,22.70
2013,08,06,15,23,22.70
2013,08,06,15,24,22.60
2013,08,06,15,25,22.50
2013,08,06,15,26,22.40
2013,08,06,15,27,22.30
2013,08,06,15,28,22.30
2013,08,06,15,29,22.20
2013,08,06,15,30,22.30
2013,08,06,15,31,22.40
2013,08,06,15,32,22.40
2013,08,06,15,33,22.50
2013,08,06,15,34,22.50
2013,08,06,15,35,22.60
2013,08,06,15,36,22.60
2013,08,06,15,37,22.70
2013,08,06,15,38,22.80
2013,08,06,15,39,22.90
2013,08,06,15,40,22.90
2013,08,06,15,41,22.90
2013,08,06,15,42,22.90
2013,08,06,15,43,22.90
2013,08,06,15,44,22.90
2013,08,06,15,45,22.90
2013,08,06,15,46,22.90
2013,08,06,15,47,22.90
2013,08,06,15,48,22.90
2013,08,06,15,49,22.80
2013,08,06,15,50,22.80
2013,08,06,15,51,22.70
2013,08,06,15,52,22.70
2013,08,06,15,53,22.70
2013,08,06,15,54,22.60
2013,08,06,15,55,22.60
2013,08,06,15,56,22.70
2013,08,06,15,57,22.70
2013,08,06,15,58,22.70
2013,08,06,15,59,22.70
2013,08,06,16,00,22.70
2013,08,06,16,01,22.70
2013,08,06,16,02,22.70
2013,08,06,16,03,22.70
2013,08,06,16,04,22.90
2013,08,06,16,05,22.90
2013,08,06,16,06,22.90
2013,08,06,16,07,22.90
2013,08,06,16,08,22.90
2013,08,06,16,09,23.00
2013,08,06,16,10,23.10
2013,08,06,16,11,23.10
2013,08,06,16,12,23.10
2013,08,06,16,13,23.10
2013,08,06,16,14,23.10
2013,08,06,16,15,23.10
2013,08,06,16,16,23.00
2013,08,06,16,17,22.90
2013,08,06,16,18,22.90
2013,08,06,16,19,22.90
2013,08,06,16,20,22.90
2013,08,06,16,21,22.90
2013,08,06,16,22,23.00
2013,08,06,16,23,23.10
2013,08,06,16,24,23.10
2013,08,06,16,25,23.10
2013,08,06,16,26,23.10
2013,08,06,16,27,23.10
2013,08,06,16,28,23.10
2013,08,06,16,29,23.10
2013,08,06,16,30,22.90
2013,08,06,16,31,22.90
2013,08,06,16,32,22.90
2013,08,06,16,33,22.90
2013,08,06,16,34,22.90
2013,08,06,16,35,22.90
2013,08,06,16,36,22.90
2013,08,06,16,37,22.90
2013,08,06,16,38,22.90
2013,08,06,16,39,22.90
2013,08,06,16,40,22.90
2013,08,06,16,41,22.90
2013,08,06,16,42,22.90
2013,08,06,16,43,22.90
2013,08,06,16,44,23.00
2013,08,06,16,45,23.10
2013,08,06,16,46,23.30
2013,08,06,16,47,23.30
2013,08,06,16,48,23.40
2013,08,06,16,49,23.40
2013,08,06,16,50,23.40
2013,08,06,16,51,23.40
2013,08,06,16,52,23.40
2013,08,06,16,53,23.40
2013,08,06,16,54,23.50
2013,08,06,16,55,23.70
2013,08,06,16,56,23.70
2013,08,06,16,57,23.70
2013,08,06,16,58,23.70
2013,08,06,16,59,23.70
2013,08,06,17,00,23.70
2013,08,06,17,01,23.70
2013,08,06,17,02,23.70
2013,08,06,17,03,23.80
2013,08,06,17,04,23.90
2013,08,06,17,05,23.90
2013,08,06,17,06,23.90
2013,08,06,17,07,23.90
2013,08,06,17,08,23.90
2013,08,06,17,09,23.90
2013,08,06,17,10,23.90
2013,08,06,17,11,23.90
2013,08,06,17,12,23.90
2013,08,06,17,13,23.90
2013,08,06,17,14,23.90
2013,08,06,17,15,23.80
2013,08,06,17,16,23.70
2013,08,06,17,17,23.70
2013,08,06,17,18,23.70
2013,08,06,17,19,23.60
2013,08,06,17,20,23.60
2013,08,06,17,21,23.60